Stations météo

réclame
Mon MeteoGroup
Stockholm/observat., Suède (2484): Température de l'air & dewpoint: 18.01.2020 13:00:00 - 24.01.2020 13:00:00 (CET)Stockholm/observat., Suède (2484): reduced air pressure: 18.01.2020 13:00:00 - 24.01.2020 13:00:00 (CET)
Date & Time tt [°C] td [°C] ppp [hPa]
24.01.2020 13:00:00 - - -
24.01.2020 12:00:00 7,1 3,2 1004,2
24.01.2020 11:00:00 6,6 3,2 1004,3
24.01.2020 10:00:00 5,9 3,2 1004,3
24.01.2020 09:00:00 5,8 3,3 1004,5
24.01.2020 08:00:00 5,3 3,0 1004,4
24.01.2020 07:00:00 5,2 2,9 1004,3
24.01.2020 06:00:00 5,1 2,8 1004,7
24.01.2020 05:00:00 5,0 2,9 1005,2
24.01.2020 04:00:00 5,2 3,0 1005,5
24.01.2020 03:00:00 5,1 3,0 1006,0
24.01.2020 02:00:00 5,2 3,2 1006,3
24.01.2020 01:00:00 5,6 3,3 1006,8
24.01.2020 00:00:00 5,7 3,5 1007,0
23.01.2020 23:00:00 5,3 3,6 1007,3
23.01.2020 22:00:00 5,0 3,3 1008,1
23.01.2020 21:00:00 4,5 3,0 1008,4
23.01.2020 20:00:00 4,3 2,6 1009,2
23.01.2020 19:00:00 3,8 2,2 1009,4
23.01.2020 18:00:00 3,7 1,9 1010,1
23.01.2020 17:00:00 3,3 1,2 1010,8
23.01.2020 16:00:00 3,0 -0,1 1011,6
23.01.2020 15:00:00 3,5 -0,9 1012,3
23.01.2020 14:00:00 3,3 -2,2 1013,3
23.01.2020 13:00:00 2,8 -3,3 1014,4
23.01.2020 12:00:00 2,8 -4,0 1016,2
23.01.2020 11:00:00 1,2 -4,4 1017,3
23.01.2020 10:00:00 0,8 -4,8 1018,2
23.01.2020 09:00:00 0,4 -5,8 1019,6
23.01.2020 08:00:00 -0,8 -5,4 1020,7
23.01.2020 07:00:00 -1,2 -5,1 1022,1
23.01.2020 06:00:00 -1,0 -5,2 1022,7
23.01.2020 05:00:00 -1,0 -5,2 1023,6
23.01.2020 04:00:00 -0,7 -4,9 1024,3
23.01.2020 03:00:00 -0,3 -4,7 1024,8
23.01.2020 02:00:00 -0,2 -4,6 1025,3
23.01.2020 01:00:00 0,3 -4,7 1025,4
23.01.2020 00:00:00 0,7 -4,9 1025,4
22.01.2020 23:00:00 1,2 -4,7 1025,0
22.01.2020 22:00:00 1,5 -4,7 1025,0
22.01.2020 21:00:00 1,9 -4,4 1024,9
22.01.2020 20:00:00 2,3 -4,0 1024,4
22.01.2020 19:00:00 2,6 -3,5 1024,2
22.01.2020 18:00:00 3,0 -4,0 1023,5
22.01.2020 17:00:00 3,3 -4,2 1022,8
22.01.2020 16:00:00 3,8 -3,9 1022,2
22.01.2020 15:00:00 4,1 -3,7 1020,8
22.01.2020 14:00:00 4,5 -3,5 1020,1
22.01.2020 13:00:00 4,3 -4,4 1018,7
22.01.2020 12:00:00 4,1 -5,1 1017,7
22.01.2020 11:00:00 3,5 -5,4 1016,8
22.01.2020 10:00:00 3,2 -5,1 1015,9
22.01.2020 09:00:00 2,9 -4,8 1014,9
22.01.2020 08:00:00 3,2 -4,7 1014,2
22.01.2020 07:00:00 3,5 -4,7 1013,5
22.01.2020 06:00:00 3,8 -4,4 1013,4
22.01.2020 05:00:00 4,1 -4,1 1013,2
22.01.2020 04:00:00 4,8 -4,0 1013,0
22.01.2020 03:00:00 5,1 -4,0 1013,1
22.01.2020 02:00:00 5,2 -3,4 1013,1
22.01.2020 01:00:00 5,6 -3,2 1013,5
22.01.2020 00:00:00 5,8 -3,6 1013,5
21.01.2020 23:00:00 6,2 -3,5 1014,2
21.01.2020 22:00:00 5,9 -2,3 1015,3
21.01.2020 21:00:00 5,8 -1,1 1016,0
21.01.2020 20:00:00 6,2 -0,8 1016,3
21.01.2020 19:00:00 5,7 2,0 1017,4
21.01.2020 18:00:00 5,8 2,3 1018,3
21.01.2020 17:00:00 6,8 1,5 1018,9
21.01.2020 16:00:00 7,0 2,5 1019,1
21.01.2020 15:00:00 6,7 2,0 1018,6
21.01.2020 14:00:00 7,3 1,6 1018,7
21.01.2020 13:00:00 7,7 1,7 1018,3
21.01.2020 12:00:00 7,6 2,7 1018,4
21.01.2020 11:00:00 7,4 3,8 1017,6
21.01.2020 10:00:00 7,5 4,3 1017,1
21.01.2020 09:00:00 7,3 4,4 1016,5
21.01.2020 08:00:00 7,3 4,4 1015,6
21.01.2020 07:00:00 7,3 4,3 1015,3
21.01.2020 06:00:00 7,7 4,6 1015,1
21.01.2020 05:00:00 7,8 4,9 1015,2
21.01.2020 04:00:00 7,5 4,8 1015,2
21.01.2020 03:00:00 7,9 4,8 1016,0
21.01.2020 02:00:00 7,4 4,9 1016,9
21.01.2020 01:00:00 7,1 4,7 1017,8
21.01.2020 00:00:00 6,7 4,2 1018,6
20.01.2020 23:00:00 6,6 3,9 1019,7
20.01.2020 22:00:00 6,2 3,4 1020,2
20.01.2020 21:00:00 6,3 3,1 1021,2
20.01.2020 20:00:00 6,1 2,7 1021,4
20.01.2020 19:00:00 5,7 2,5 1022,2
20.01.2020 18:00:00 5,6 2,2 1023,0
20.01.2020 17:00:00 5,4 2,1 1023,4
20.01.2020 16:00:00 5,3 1,4 1024,2
20.01.2020 15:00:00 5,2 1,3 1024,6
20.01.2020 14:00:00 5,3 1,0 1025,4
20.01.2020 13:00:00 5,1 0,8 1026,2
20.01.2020 12:00:00 4,6 0,4 1026,9
20.01.2020 11:00:00 3,7 -0,7 1027,2
20.01.2020 10:00:00 2,8 -1,9 1028,0
20.01.2020 09:00:00 2,2 -2,5 1028,6
20.01.2020 08:00:00 1,9 -3,0 1029,0
20.01.2020 07:00:00 1,9 -3,6 1029,3
20.01.2020 06:00:00 1,8 -3,9 1030,0
20.01.2020 05:00:00 1,6 -3,9 1030,4
20.01.2020 04:00:00 1,5 -3,3 1031,1
20.01.2020 03:00:00 1,5 -3,2 1031,8
20.01.2020 02:00:00 1,3 -2,6 1032,3
20.01.2020 01:00:00 1,1 -2,5 1032,0
20.01.2020 00:00:00 1,4 -2,2 1032,0
19.01.2020 23:00:00 1,3 -2,3 1032,1
19.01.2020 22:00:00 1,5 -2,1 1031,6
19.01.2020 21:00:00 2,4 -1,9 1030,7
19.01.2020 20:00:00 2,5 -1,7 1030,8
19.01.2020 19:00:00 2,6 -1,4 1030,6
19.01.2020 18:00:00 3,3 -1,5 1029,7
19.01.2020 17:00:00 3,2 -1,6 1028,4
19.01.2020 16:00:00 4,2 -1,7 1027,4
19.01.2020 15:00:00 4,5 -1,3 1026,5
19.01.2020 14:00:00 4,7 -0,9 1025,3
19.01.2020 13:00:00 4,2 -0,6 1024,6
19.01.2020 12:00:00 3,8 0,0 1023,7
19.01.2020 11:00:00 3,1 0,2 1022,7
19.01.2020 10:00:00 2,4 0,4 1021,6
19.01.2020 09:00:00 2,1 0,8 1020,6
19.01.2020 08:00:00 2,2 1,0 1018,9
19.01.2020 07:00:00 2,8 1,5 1017,6
19.01.2020 06:00:00 3,3 1,8 1016,3
19.01.2020 05:00:00 4,0 2,0 1014,9
19.01.2020 04:00:00 4,8 2,5 1013,4
19.01.2020 03:00:00 4,9 2,6 1012,1
19.01.2020 02:00:00 5,0 2,9 1010,8
19.01.2020 01:00:00 5,0 2,4 1009,5
19.01.2020 00:00:00 4,8 1,8 1008,8
18.01.2020 23:00:00 5,1 1,9 1008,1
18.01.2020 22:00:00 5,1 1,7 1007,6
18.01.2020 21:00:00 5,2 1,5 1007,3
18.01.2020 20:00:00 5,1 1,6 1007,0
18.01.2020 19:00:00 5,5 1,6 1006,8
18.01.2020 18:00:00 5,6 2,1 1006,8
18.01.2020 17:00:00 5,5 3,2 1006,7
18.01.2020 16:00:00 5,7 3,7 1006,5
18.01.2020 15:00:00 6,0 4,2 1006,4
18.01.2020 14:00:00 6,1 4,4 1006,5
18.01.2020 13:00:00 6,1 3,9 1006,4

tt = Température de l'air
td = dewpoint
ppp = reduced air pressure

stations d'obs. à proximité